Tracking 29777 objects as of 6-Oct-2024
HD Live streaming from Space Station
objects crossing your sky now

STARLINK-1672

Track STARLINK-1672 now!
10-day predictions
STARLINK-1672 is classified as:


NORAD ID: 46537
Int'l Code: 2020-070F
Perigee: 553.8 km
Apogee: 554.9 km
Inclination: 53.1 °
Period: 95.6 minutes
Semi major axis: 6925 km
RCS: Unknown
Launch date: October 6, 2020
Source: United States (US)
Launch site: AIR FORCE EASTERN TEST RANGE (AFETR)
Your satellite tracking list
Your tracking list is empty




NASA's NSSDC Master Catalog

Two Line Element Set (TLE):
1 46537U 20070F   24280.46024466  .00006299  00000-0  44150-3 0  9995
2 46537  53.0558 347.5271 0000798  93.6852 266.4228 15.06390402221240
Source of the keplerian elements: AFSPC